Погода в Игмасе

Россия / Вологодская область     60°10′10″N   43°46′33″E
темп.,
°C
ветер,
м/с
пор.,
м/с
влажн.,
%
обл.,
%
осадки,
мм/ч
давл.,
гПа
погр.,
м
11 мая, вт
вт1100:00+5ююз117166 0.0 102911
03:00+4ююз22775 0.0 103028
06:00+7ююз246975 0.0 1030118
09:00+13юз234844 0.0 1030545
12:00+17юз23435 0.0 1029908
15:00+19юз234473 0.0 10291119
18:00+17ююз126192 0.0 102949
21:00+11ююз22805 0.0 102921
12 мая, ср
ср1200:00+10ююз22828 0.0 103036
03:00+8ююз22837 0.0 103028
06:00+11ююз127155 0.0 1031102
09:00+17ю22505 0.0 1030535
12:00+21ююв22380 0.0 10291051
15:00+22ююв23310 0.0 10281306
18:00+20ююв12480 0.0 102752
21:00+13ююв22650 0.0 102711
13 мая, чт
чт1300:00+12ююв22750 0.0 102721
03:00+11ююв228466 0.0 102742
06:00+14юв248275 0.1 1026144
09:00+20ю356493 0.1 1026481
12:00+23ю254856 0.0 10241445
15:00+23ююв254987 0.0 10221399
18:00+19юв256718 0.0 1021164
21:00+17ююв257797 0.0 1020102
14 мая, пт
пт1400:00+14юв3108198 0.0 1020270
03:00+13ююв3895100 0.7 1020231
06:00+14ю3794100 1.4 1019326
09:00+15юз359199 2.3 1019453
12:00+18зюз4573100 0.1 1019926
15:00+21юз365377 0.1 10191650
18:00+21ююв1161100 0.0 101715
21:00+15ююз117842 0.0 101711
15 мая, сб
сб1500:00+13ю228857 0.0 101712
03:00+12ююв2393100 0.0 101748
06:00+15в2385100 0.2 1015136
09:00+20юв4107397 0.6 1013640
12:00+23ю486497 0.9 10121406
15:00+26ююз3848100 1.6 10102404
18:00+24ююв495897 0.1 1008615
21:00+19ююз41366100 0.1 1008628